Time,TemperatureF,DewpointF,PressureIn,WindDirection,WindDirectionDegrees,WindSpeedMPH,WindSpeedGustMPH,Humidity,HourlyPrecipIn,Conditions,Clouds,dailyrainin,SoftwareType,DateUTC
2013-08-25 00:22:00,49.0,-99.9,-100.00,North,-999,-999.0,-999.0,-999,0.00,,,0.21,,2013-08-25 06:22:00,
2013-08-25 00:32:00,49.0,-99.9,-100.00,North,-999,-999.0,-999.0,-999,0.00,,,0.21,,2013-08-25 06:32:00,
2013-08-25 00:43:00,49.0,-99.9,-100.00,North,-999,-999.0,-999.0,-999,0.00,,,0.21,,2013-08-25 06:43:00,
2013-08-25 01:22:00,49.0,-99.9,-100.00,North,-999,-999.0,-999.0,-999,0.00,,,0.21,,2013-08-25 07:22:00,
2013-08-25 01:32:00,49.0,-99.9,-100.00,North,-999,-999.0,-999.0,-999,0.00,,,0.21,,2013-08-25 07:32:00,
2013-08-25 01:42:00,49.0,-99.9,-100.00,North,-999,-999.0,-999.0,-999,0.00,,,0.21,,2013-08-25 07:42:00,
2013-08-25 02:22:00,49.0,-99.9,-100.00,North,-999,-999.0,-999.0,-999,0.00,,,-99.99,,2013-08-25 08:22:00,
2013-08-25 02:32:00,49.0,-99.9,-100.00,North,-999,-999.0,-999.0,-999,0.00,,,-99.99,,2013-08-25 08:32:00,
2013-08-25 02:42:00,49.0,-99.9,-100.00,North,-999,-999.0,-999.0,-999,0.00,,,-99.99,,2013-08-25 08:42:00,
2013-08-25 03:22:00,49.0,-99.9,-100.00,North,-999,-999.0,-999.0,-999,0.00,,,0.21,,2013-08-25 09:22:00,
2013-08-25 03:34:00,49.0,-99.9,-100.00,North,-999,-999.0,-999.0,-999,0.00,,,0.21,,2013-08-25 09:34:00,
2013-08-25 03:44:00,49.0,-99.9,-100.00,North,-999,-999.0,-999.0,-999,0.00,,,0.21,,2013-08-25 09:44:00,
2013-08-25 04:23:00,48.0,-99.9,-100.00,North,-999,-999.0,-999.0,-999,0.00,,,0.21,,2013-08-25 10:23:00,
2013-08-25 04:33:00,48.0,-99.9,-100.00,North,-999,-999.0,-999.0,-999,0.00,,,0.21,,2013-08-25 10:33:00,
2013-08-25 04:42:00,48.0,-99.9,-100.00,North,-999,-999.0,-999.0,-999,0.00,,,0.21,,2013-08-25 10:42:00,
2013-08-25 05:22:00,46.0,-99.9,-100.00,North,-999,-999.0,-999.0,-999,0.00,,,0.21,,2013-08-25 11:22:00,
2013-08-25 05:33:00,46.0,-99.9,-100.00,North,-999,-999.0,-999.0,-999,0.00,,,0.21,,2013-08-25 11:33:00,
2013-08-25 05:42:00,46.0,-99.9,-100.00,North,-999,-999.0,-999.0,-999,0.00,,,0.21,,2013-08-25 11:42:00,
2013-08-25 06:22:00,45.0,-99.9,-100.00,North,-999,-999.0,-999.0,-999,0.00,,,0.18,,2013-08-25 12:22:00,
2013-08-25 06:33:00,45.0,-99.9,-100.00,North,-999,-999.0,-999.0,-999,0.00,,,0.18,,2013-08-25 12:33:00,
2013-08-25 06:43:00,45.0,-99.9,-100.00,North,-999,-999.0,-999.0,-999,0.00,,,0.18,,2013-08-25 12:43:00,
2013-08-25 07:22:00,43.0,-99.9,-100.00,North,-999,-999.0,-999.0,-999,0.00,,,0.18,,2013-08-25 13:22:00,
2013-08-25 07:32:00,43.0,-99.9,-100.00,North,-999,-999.0,-999.0,-999,0.00,,,0.18,,2013-08-25 13:32:00,
2013-08-25 07:42:00,43.0,-99.9,-100.00,North,-999,-999.0,-999.0,-999,0.00,,,0.18,,2013-08-25 13:42:00,
2013-08-25 08:29:00,43.0,-99.9,-100.00,North,-999,-999.0,-999.0,-999,0.00,,,-99.99,,2013-08-25 14:29:00,
2013-08-25 08:42:00,43.0,-99.9,-100.00,North,-999,-999.0,-999.0,-999,0.00,,,-99.99,,2013-08-25 14:42:00,
2013-08-25 09:23:00,51.0,-99.9,-100.00,North,-999,-999.0,-999.0,-999,0.00,,,-99.99,,2013-08-25 15:23:00,
2013-08-25 09:35:00,51.0,-99.9,-100.00,North,-999,-999.0,-999.0,-999,0.00,,,-99.99,,2013-08-25 15:35:00,
2013-08-25 09:44:00,51.0,-99.9,-100.00,North,-999,-999.0,-999.0,-999,0.00,,,-99.99,,2013-08-25 15:44:00,
2013-08-25 10:24:00,56.0,-99.9,-100.00,North,-999,-999.0,-999.0,-999,0.00,,,0.18,,2013-08-25 16:24:00,
2013-08-25 10:33:00,56.0,-99.9,-100.00,North,-999,-999.0,-999.0,-999,0.00,,,0.18,,2013-08-25 16:33:00,
2013-08-25 10:44:00,56.0,-99.9,-100.00,North,-999,-999.0,-999.0,-999,0.00,,,0.18,,2013-08-25 16:44:00,
2013-08-25 11:23:00,63.0,-99.9,-100.00,North,-999,-999.0,-999.0,-999,0.01,,,0.19,,2013-08-25 17:23:00,
2013-08-25 11:34:00,63.0,-99.9,-100.00,North,-999,-999.0,-999.0,-999,0.01,,,0.19,,2013-08-25 17:34:00,
2013-08-25 11:43:00,63.0,-99.9,-100.00,North,-999,-999.0,-999.0,-999,0.01,,,0.19,,2013-08-25 17:43:00,
2013-08-25 12:22:00,68.0,-99.9,-100.00,North,-999,-999.0,-999.0,-999,0.00,,,0.19,,2013-08-25 18:22:00,
2013-08-25 12:32:00,68.0,-99.9,-100.00,North,-999,-999.0,-999.0,-999,0.00,,,0.19,,2013-08-25 18:32:00,
2013-08-25 12:43:00,68.0,-99.9,-100.00,North,-999,-999.0,-999.0,-999,0.00,,,0.19,,2013-08-25 18:43:00,
2013-08-25 13:22:00,70.0,-99.9,-100.00,North,-999,-999.0,-999.0,-999,0.00,,,0.17,,2013-08-25 19:22:00,
2013-08-25 13:32:00,70.0,-99.9,-100.00,North,-999,-999.0,-999.0,-999,0.00,,,0.17,,2013-08-25 19:32:00,
2013-08-25 13:42:00,70.0,-99.9,-100.00,North,-999,-999.0,-999.0,-999,0.00,,,0.17,,2013-08-25 19:42:00,
2013-08-25 14:24:00,74.0,-99.9,-100.00,North,-999,-999.0,-999.0,-999,0.00,,,0.17,,2013-08-25 20:24:00,
2013-08-25 14:33:00,74.0,-99.9,-100.00,North,-999,-999.0,-999.0,-999,0.00,,,0.17,,2013-08-25 20:33:00,
2013-08-25 14:43:00,74.0,-99.9,-100.00,North,-999,-999.0,-999.0,-999,0.00,,,0.17,,2013-08-25 20:43:00,
2013-08-25 15:22:00,76.0,-99.9,-100.00,North,-999,-999.0,-999.0,-999,-99.99,,,0.16,,2013-08-25 21:22:00,
2013-08-25 15:34:00,76.0,-99.9,-100.00,North,-999,-999.0,-999.0,-999,-99.99,,,0.16,,2013-08-25 21:34:00,
2013-08-25 15:43:00,76.0,-99.9,-100.00,North,-999,-999.0,-999.0,-999,-99.99,,,0.16,,2013-08-25 21:43:00,
2013-08-25 16:24:00,76.0,-99.9,-100.00,North,-999,-999.0,-999.0,-999,0.00,,,0.15,,2013-08-25 22:24:00,
2013-08-25 16:35:00,76.0,-99.9,-100.00,North,-999,-999.0,-999.0,-999,0.00,,,0.15,,2013-08-25 22:35:00,
2013-08-25 16:43:00,76.0,-99.9,-100.00,North,-999,-999.0,-999.0,-999,0.00,,,0.15,,2013-08-25 22:43:00,
2013-08-25 19:22:00,66.0,-99.9,-100.00,North,-999,-999.0,-999.0,-999,0.00,,,0.13,,2013-08-26 01:22:00,
2013-08-25 19:32:00,66.0,-99.9,-100.00,North,-999,-999.0,-999.0,-999,0.00,,,0.13,,2013-08-26 01:32:00,
2013-08-25 19:42:00,66.0,-99.9,-100.00,North,-999,-999.0,-999.0,-999,0.00,,,0.13,,2013-08-26 01:42:00,
2013-08-25 20:22:00,60.0,-99.9,-100.00,North,-999,-999.0,-999.0,-999,0.01,,,0.01,,2013-08-26 02:22:00,
2013-08-25 20:32:00,60.0,-99.9,-100.00,North,-999,-999.0,-999.0,-999,0.01,,,0.01,,2013-08-26 02:32:00,
2013-08-25 20:42:00,60.0,-99.9,-100.00,North,-999,-999.0,-999.0,-999,0.01,,,0.01,,2013-08-26 02:42:00,
2013-08-25 21:44:00,55.0,-99.9,-100.00,North,-999,-999.0,-999.0,-999,0.01,,,0.02,,2013-08-26 03:44:00,
2013-08-25 23:23:00,50.0,-99.9,-100.00,North,-999,-999.0,-999.0,-999,-99.99,,,0.01,,2013-08-26 05:23:00,
2013-08-25 23:34:00,50.0,-99.9,-100.00,North,-999,-999.0,-999.0,-999,-99.99,,,0.01,,2013-08-26 05:34:00,
2013-08-25 23:44:00,50.0,-99.9,-100.00,North,-999,-999.0,-999.0,-999,-99.99,,,0.01,,2013-08-26 05:44:00,